Regional Weather Roundup
Issued by NWS

Home | Current Version | Previous Version | Text Only | Print | Product List | Glossary On
Versions: 1 2 3 4 5 6 7 8 9 10 11 12 13 14 15 16 17 18 19 20 21 22 23 24 25 26 27 28 29 30 31 32 33 34 35 36 37 38 39 40 41 42 43 44 45 46 47 48 49 50
000
ASUS44 KFWD 231910
RWRTX
NORTH TEXAS HOURLY WEATHER ROUNDUP
NATIONAL WEATHER SERVICE FORT WORTH TX
100 PM CST THU NOV 23 2017

NOTE: "FAIR" INDICATES FEW OR NO CLOUDS BELOW 12,000 FEET WITH NO
SIGNIFICANT WEATHER AND/OR OBSTRUCTIONS TO VISIBILITY.

TXZ118-119-232000-
DALLAS/FORT WORTH METROPLEX

CITY           SKY/WX    TMP DP  RH WIND       PRES   REMARKS
DFW AIRPORT    MOSUNNY   65  25  22 S7        30.09F
DALLAS LOVE    MOSUNNY   63  24  22 VRB3      30.10F
FTW MEACHAM    SUNNY     68  30  24 VRB6      30.08F
DAL-EXECUTIVE  SUNNY     64  25  22 CALM      30.10F
FTW-ALLIANCE   MOSUNNY   68  28  22 S7        30.09F
FTW-NAS-JRB    SUNNY     68  28  22 SE6       30.09F
FTW-SPINKS     SUNNY     66  30  26 S3        30.11F
ARLINGTON      SUNNY     64  28  25 S8        30.10F
GRAND PRAIRIE  SUNNY     63  28  27 SE7       30.12F
ADDISON        SUNNY     61  25  25 S3        30.11F
MESQUITE       SUNNY     61  25  25 S7        30.12F
LANCASTER      SUNNY     62  26  25 S3        30.12F
$$

TXZ091>094-102>105-117-120-121-131>134-232000-
NORTH CENTRAL TEXAS

CITY           SKY/WX    TMP DP  RH WIND       PRES   REMARKS
SHRMAN/DENISON SUNNY     64  26  24 S7        30.10F
GAINESVILLE    SUNNY     67  27  22 S7        30.10F
BOWIE          SUNNY     69  31  24 SW3       30.08F
BRIDGEPORT     SUNNY     69  30  24 S6        30.10F
DECATUR        SUNNY     67  29  23 S5        30.08F
DENTON         SUNNY     67  29  24 SW8       30.09F
MCKINNEY       SUNNY     62  27  26 S8        30.11F
BONHAM         SUNNY     61  26  26 SW5       30.11F
GREENVILLE     SUNNY     63  27  25 CALM      30.12F
ROCKWALL       SUNNY     61  29  29 W6        30.12F
TERRELL        SUNNY     62  24  23 CALM      30.12F
WAXAHACHIE     SUNNY     64  31  28 CALM      30.12F
CLEBURNE       SUNNY     66  28  24 VRB6      30.11F
GRANBURY       SUNNY     71  30  21 SW3       30.10F
$$

TXZ083>090-098>101-113>116-127>130-139>142-154-155-232000-
WESTERN NORTH TEXAS

CITY           SKY/WX    TMP DP  RH WIND       PRES   REMARKS
WICHITA FALLS  SUNNY     64  31  28 VRB3      30.06F
WF-KICKAPOO    SUNNY     63  32  31 W5        30.10F
VERNON         SUNNY     67  22  18 CALM      30.07F
ABILENE        SUNNY     69  32  25 SW9       30.10F
ABILENE-DYESS  SUNNY     70  36  28 W8        30.09F
GRAHAM           N/A     69  33  25 SW5       30.07F
BRECKENRIDGE   SUNNY     72  30  20 SW7       30.08F HAZE
CISCO          SUNNY     70  30  23 VRB3      30.12F
EASTLAND       SUNNY     70  31  23 SW9       30.09F
RANGER         SUNNY     69  31  24 W7        30.10F
MINERAL WELLS  SUNNY     69  27  20 W6        30.07F
STEPHENVILLE   SUNNY     69  27  20 CALM      30.12F
COMANCHE       SUNNY     68  32  25 W7        30.11F
BROWNWOOD      SUNNY     68  27  21 SW12      30.12F
COLEMAN        SUNNY     68  29  23 SW8       30.12F
$$

TXZ143>147-156>162-174-175-232000-
CENTRAL TEXAS

CITY           SKY/WX    TMP DP  RH WIND       PRES   REMARKS
WACO           SUNNY     62  27  26 VRB3      30.13F
WACO-TSTC      SUNNY     63  27  25 CALM      30.12F
WACO-MCGREGOR  SUNNY     66  27  23 CALM      30.12F
HILLSBORO      SUNNY     64  30  28 S6        30.11F
CORSICANA      SUNNY     61  25  25 VRB3      30.14F
MEXIA          SUNNY     61  25  25 CALM      30.13F
HEARNE         SUNNY     59  28  30 CALM      30.15F
CAMERON        SUNNY     63  27  25 CALM      30.14F
TEMPLE         SUNNY     65  26  23 S5        30.13F
KILLEEN        SUNNY     67  25  20 W8        30.11F
KILLEEN-SKYLRK SUNNY     68  28  22 W6        30.12F
FORT HOOD      SUNNY     66  25  21 NW3       30.09F
GATESVILLE     SUNNY     66  27  22 CALM      30.13F
HAMILTON       SUNNY     70  29  21 NW6       30.11F
LAMPASAS       SUNNY     68  31  25 W5        30.11F
$$

TXZ095>097-106>112-122>126-135>138-148>153-164>167-232000-
EAST TEXAS

CITY           SKY/WX    TMP DP  RH WIND       PRES   REMARKS
PARIS          SUNNY     59  27  29 SW5       30.12F
SULPHUR SPRNGS SUNNY     60  27  28 CALM      30.14F
MOUNT PLEASANT SUNNY     58  28  31 NW3       30.13F
GILMER         SUNNY     57  26  30 CALM      30.12F
MINEOLA        SUNNY     59  27  29 N3        30.12F
TYLER          SUNNY     60  22  23 CALM      30.12F
LONGVIEW       SUNNY     58  32  37 CALM      30.13F
MARSHALL       SUNNY     56  25  30 CALM      30.15F
ATHENS         SUNNY     59  27  29 CALM      30.12F
PALESTINE      SUNNY     61  27  28 CALM      30.15F
JACKSONVILLE   SUNNY     59  31  34 CALM      30.14F
HENDERSON      SUNNY     59  28  30 CALM      30.14F
CENTER         CLEAR     56  26  31 CALM      30.14F
NACOGDOCHES    SUNNY     59  32  36 CALM      30.14F
LUFKIN         SUNNY     60  32  34 VRB3      30.13F
$$

SUPPLEMENTAL OBSERVATIONS (NWS FORT WORTH AREA)

CITY           SKY/WX    TMP DP  RH WIND       PRES   REMARKS
CADDO GRASSLND   N/A     63  28  27 S5          N/A
PAT MAYSE LAKE   N/A     57  23  26 SW3         N/A
GREENVILLE       N/A     63  27  25 SW5         N/A
CEDAR HILL       N/A     66  28  24 S5          N/A
LBJ GRASSLAND    N/A     70  30  23 S5          N/A
POSSUM KINGDOM   N/A     72  32  23 SW8         N/A
GRANBURY         N/A     72  30  21 SW6         N/A
MCGREGOR         N/A     68  28  22 SW3         N/A
TEMPLE           N/A     64  27  24 S5          N/A
$$

SUPPLEMENTAL OBSERVATIONS (NWS NORMAN AREA)

CITY           SKY/WX    TMP DP  RH WIND       PRES   REMARKS
GOODLETT         N/A     75  32  20 SE2       30.06F
ODELL            N/A     71  32  23 SW5       30.07F
CROWELL          N/A     72  34  24 SW2       30.08F
KNOX CITY        N/A     72  31  21 W2        30.09F
SEYMOUR          N/A     68  33  27 W5        30.08F
MILLERS CREEK    N/A     70  37  30 S6          N/A
$$

SUPPLEMENTAL OBSERVATIONS (NWS SAN ANGELO AREA)

CITY           SKY/WX    TMP DP  RH WIND       PRES   REMARKS
WEINERT          N/A     70  33  25 W2        30.09F
HASKELL          N/A     70  30  22 SW6       30.09F
THROCKMORTON     N/A     69  35  29 SW5       30.09F
STAMFORD         N/A     71  34  26 W7        30.10F
CLYDE            N/A     70  33  25 SW7       30.11F
HAMBY            N/A     72  32  23 W5          N/A
IVIE RESERVOIR   N/A     70  32  24 W8          N/A
COLORADO BEND    N/A     70  27  19 NW3G13      N/A
$$

SUPPLEMENTAL OBSERVATIONS (NWS SHREVEPORT AREA)

CITY           SKY/WX    TMP DP  RH WIND       PRES   REMARKS
CLARKSVILLE      N/A     61  27  27 W1          N/A
TEXARKANA        N/A     59  30  33 S1          N/A
LINDEN           N/A     61  28  29 N2          N/A
GILMER           N/A     61  28  29 S2          N/A
HENDERSON        N/A     61  28  29 N5          N/A
LUFKIN           N/A     63  34  34 MISG        N/A
N SABINE NF      N/A     57  32  38 MISG        N/A
$$

SUPPLEMENTAL OBSERVATIONS ARE A COLLECTION OF AUTOMATED INSTRUMENTS
THAT ARE MAINTAINED BY A VARIETY OF FEDERAL AND STATE AGENCIES.
CERTAIN ELEMENTS...SUCH AS HUMIDITY VALUES AND SUSTAINED WIND
SPEEDS...MAY BE APPROXIMATED.





USA.gov is the U.S. government's official web portal to all federal, state and local government web resources and services.